Погода в Хилтон-Хед-Айленд

США     32°11′46″N   80°44′18″W
темп.,
°C
ветер,
м/с
пор.,
м/с
влажн.,
%
обл.,
%
осадки,
мм/ч
давл.,
гПа
погр.,
м
15 мая, сб
сб1523:00+17всв35560 0.0 1024370
02:00+17св35600 0.0 1023369
05:00+14с34700 0.0 1024123
08:00+16ссв46600 0.0 1026201
11:00+22св46330 0.0 10261472
14:00+22юв66414 0.0 10251481
17:00+21юв65447 0.0 1024785
20:00+19юв35512 0.0 1024424
16 мая, вс
вс1623:00+18ююв35520 0.0 1024440
02:00+18ююв24530 0.0 1023433
05:00+18юв13551 0.0 1023439
08:00+19ссз115465 0.0 1026170
11:00+22вюв2244100 0.0 1026828
14:00+22юв53471 0.0 1025991
17:00+22ююв65480 0.0 1023706
20:00+20ю46605 0.0 1023381
17 мая, пн
пн1723:00+19ю35645 0.0 1023325
02:00+19ююз246691 0.0 1023259
05:00+18юз23675 0.0 1022222
08:00+20ссв11635 0.0 1023129
11:00+23юв32505 0.0 1024806
14:00+23юв54525 0.0 1023741
17:00+23юв5454100 0.0 1022611
20:00+21юв3570100 0.0 1022280
18 мая, вт
вт1823:00+21ююв3577100 0.0 1023232
02:00+20юв248062 0.0 1023195
05:00+20всв348075 0.0 1022202
08:00+21всв477733 0.1 1024401
11:00+24в566380 0.0 10251012
14:00+24в6662100 0.0 1024926
17:00+23в666517 0.0 1023775
20:00+21в577910 0.0 1024558
19 мая, ср
ср1923:00+21в58805 0.0 1025536
02:00+21в58836 0.1 1024540
05:00+21всв69805 0.1 1024686
08:00+22в68715 0.1 1025963
11:00+24в67530 0.0 10261311
14:00+24в786115 0.0 10261219
17:00+23в88641 0.0 10251109
20:00+21всв710763 0.0 1025691